Location: Chochol
(49.7771°N, 14.9780°E)
Time: 03:36:07
(UTC+00:00)

BREEZE-M DEB (TANK) - Pass Details

Date: 09 April 2020
Orbit: 321 x 11933 km, 49.7° (Epoch: 24 May)

Event Time Altitude Azimuth Distance (km) Brightness Sun altitude
Rises 18:32:10 0° 286° (WNW) 5,846 11.0 -8.1°
Reaches altitude 10° 18:37:32 10° 284° (WNW) 3,500 9.1 -8.9°
Maximum altitude 18:44:13 55° 208° (SSW) 724 4.0 -9.9°
Enters shadow 18:46:35 15° 131° (SE) 1,285 4.7 -10.2°
